[Date Prev][Date Next][Thread Prev][Thread Next] - [Date Index][Thread Index][Author Index]
MIR Keps 2-8
- Subject: [sarex] MIR Keps 2-8
- From: "Dr Dave Larsen [ PhD ]" <doc@xxxxxxxxxxx>
- Date: Mon, 8 Feb 1999 10:55:13 -0800
MIR
1 16609U 86017A 99039.53978018 .00001000 00000-0 12784-4 0 1961
2 16609 51.6620 282.8910 0014553 109.7940 250.4678 15.70632934741163
~ Have fun with MIR's digi - REMBER please only [UI] ~
Be on the look out for new Beacons from MIR in APRS format
Dave
N6CO
>
----
Via the sarex mailing list at AMSAT.ORG courtesy of AMSAT-NA.
To unsubscribe, send "unsubscribe sarex" to Majordomo@amsat.org
AMSAT Home